STARLINK-36957

Last updated on Mon Mar 30 2026 00:02:05 GMT+0000 (Coordinated Universal Time)

1 67989U 26039D 26088.16668981 .00023424 00000+0 83687-3 0 9997 2 67989 42.9995 299.1948 0001608 257.6325 301.4474 15.28399553 6005
UTC large
Height (km)
Speed (km/s)
/
Latitude / Longitude
Inclination (degrees)
Orbital Period (minutes)
Azimuth
Elevation
Range (km)
Doppler Factor

Next 0 passes for location: London (51.5072 / 0.1276)

Sorry there are no passes over London.